Address 0x68560936cd0d6a1d1454b8e30be2d474759ba600 9

Txn Hash Method
Block
From
To
Value [Txn Fee]
0x8fcfc3198f41f2e1051c9dac35525031a6e6c9f3944cb694be50af0143541ede0xb16af9be93111592021-05-31 2:43:41108 days 8 hrs ago0x68560936cd0d6a1d1454b8e30be2d474759ba600OUT 0xeec4d249814850e7f495834657c6fd7ce779808d0 BNB0.03372146
0x58bce22290f0d49882f3d5ebc74497586c568cdda301d8e925526307d77c02acApprove93111522021-05-31 2:43:20108 days 8 hrs ago0x68560936cd0d6a1d1454b8e30be2d474759ba600OUT 0xa29fb5eb8ed87543aca45dbf55365b1f85b2f7c70 BNB0.00045061
0x2204c2a0f7af69e1234ee90e16c5bd07010ac24d2b9e07fc099bc597d8edb68f0xd76f03e493111152021-05-31 2:41:29108 days 8 hrs ago0x68560936cd0d6a1d1454b8e30be2d474759ba600OUT 0xd32f49b6e03c2cb3d257e690c289cb623aa194800 BNB0.00569094
0xeed57163c81f8e69355915854efd443255264684ee1abd6a832594850c846ca00xd76f03e493109102021-05-31 2:31:14108 days 8 hrs ago0x68560936cd0d6a1d1454b8e30be2d474759ba600OUT 0xd32f49b6e03c2cb3d257e690c289cb623aa194800 BNB0.00569418
0x50b48cd904b651afa91f7cb507a95fa375807c74d0839fce4e9293014e7faa840xd76f03e493108842021-05-31 2:29:56108 days 8 hrs ago0x68560936cd0d6a1d1454b8e30be2d474759ba600OUT 0xd32f49b6e03c2cb3d257e690c289cb623aa194800 BNB0.00569418
0x5ec9d7f2f6a0bc4e579b941a120b3b580efcd683bcb9bcf96fc5ea4c350394a60xd76f03e493108662021-05-31 2:29:02108 days 8 hrs ago0x68560936cd0d6a1d1454b8e30be2d474759ba600OUT 0xd32f49b6e03c2cb3d257e690c289cb623aa194800 BNB0.00569406
0x839c632ef9b7f5c440c18c07ac56d2b44a2f209d3f2168aa1d69f1ee1e19d0280xd76f03e493108572021-05-31 2:28:35108 days 8 hrs ago0x68560936cd0d6a1d1454b8e30be2d474759ba600OUT 0xd32f49b6e03c2cb3d257e690c289cb623aa194800 BNB0.00569406
0xf6510d40d565777404b81597e27d496135ac29897de333b3578df5bc2bbbfcdb0xd76f03e493108442021-05-31 2:27:56108 days 8 hrs ago0x68560936cd0d6a1d1454b8e30be2d474759ba600OUT 0xd32f49b6e03c2cb3d257e690c289cb623aa194800 BNB0.00569406
0x4fa16d75947d76d378740d879ce43d66a57f5ad8a5b677937c5cb547dc9fdff90xd76f03e493108352021-05-31 2:27:29108 days 8 hrs ago0x68560936cd0d6a1d1454b8e30be2d474759ba600OUT 0xd32f49b6e03c2cb3d257e690c289cb623aa194800 BNB0.00569406
0x995491782730b69743b4f9a0f4990ae7fbcc91b6d6c466e7f95f8fb5ae3dae38Bond79033492021-04-12 4:03:39157 days 7 hrs ago0x68560936cd0d6a1d1454b8e30be2d474759ba600OUT 0x5081d49529ea7fceda1f1b19f136d7b37a9919c10 BNB0.00319034
0x0d5006be8a5f3b1d653b5a968120edc5686db023b88700d97f74bbc2ed55dcfaApprove79033362021-04-12 4:03:00157 days 7 hrs ago0x68560936cd0d6a1d1454b8e30be2d474759ba600OUT 0x3166b15bd3a47a4a6984d76b6e4d23390eff33f50 BNB0.00044286
0x76e2f98da4d1d74757d27305f1d081d5a71b1b33ec7402db8851ee3c7bfeffdcAdd Liquidity79033272021-04-12 4:02:33157 days 7 hrs ago0x68560936cd0d6a1d1454b8e30be2d474759ba600OUT 0x84238235fcf88416c256e3bbf5e6becc9f6aead70 BNB0.0014993
0x3adf17f77723dc2459947134b9132dcccde0b561c9e477cbe5243da7c4cd90cbApprove79033192021-04-12 4:02:09157 days 7 hrs ago0x68560936cd0d6a1d1454b8e30be2d474759ba600OUT 0xb0f8e815d351864ef22e4fcf5d9992f96a6d3e1a0 BNB0.00044452
0x5ef6ed8d96ebac24e3e8651537b43864f41a5ee0cb815416a300ad0585b01c54Swap Exact Token...79033112021-04-12 4:01:45157 days 7 hrs ago0x68560936cd0d6a1d1454b8e30be2d474759ba600OUT 0x84238235fcf88416c256e3bbf5e6becc9f6aead70 BNB0.00124603
0x1cc8ef8f615f2e09c6e6cb018bc3e47d8509acb7b559d33103239df6d5209e18Approve79032922021-04-12 4:00:48157 days 7 hrs ago0x68560936cd0d6a1d1454b8e30be2d474759ba600OUT 0x30a40bc648799a746947417c675e54d5915aca380 BNB0.00044452
0x52f378f0d4323e8766a12fefc971bb7a739c18ae3ba055c5138719a8fc35f9cbFaucet79032792021-04-12 4:00:09157 days 7 hrs ago0x68560936cd0d6a1d1454b8e30be2d474759ba600OUT 0x6dc1723a5e6113e166c4c74f4fafc422663942680 BNB0.00057692
0x362830fd79394c28cca4430273bd15f857f5feb7ae23dce0a4c6d6c3c92b1973Transfer79032662021-04-12 3:59:30157 days 7 hrs ago0xaa25aa7a19f9c426e07dee59b12f944f4d9f1dd3 IN 0x68560936cd0d6a1d1454b8e30be2d474759ba6006.25 BNB0.000378
0x24a8da5598cb79a696f06300d549f77122488a679bc02725253b8111507ba933Stake78576062021-04-10 13:56:30158 days 21 hrs ago0x68560936cd0d6a1d1454b8e30be2d474759ba600OUT 0x8c352007fffc5f8cbd0db84a82bb4b39ed0bdd588.01 BNB0.00295882
0xc1ee8b208758267d705f6e9e6faadf74042e1ca86d9b5ec5c9367372753ad4afTransfer78565272021-04-10 13:02:33158 days 22 hrs ago0xaa25aa7a19f9c426e07dee59b12f944f4d9f1dd3 IN 0x68560936cd0d6a1d1454b8e30be2d474759ba6006.25 BNB0.000378
0x7b51e32c478a04403f42cf9d5b0a64863283df59b2c2580ef6b2a8b89e667550Open Booster Car...77873932021-04-08 3:25:51161 days 7 hrs ago0x68560936cd0d6a1d1454b8e30be2d474759ba600OUT 0x7b1664842cdbb450be8e1fa9bb18ab147d0973980 BNB0.00290851
0xb5cd77b906498b6f5a4e4cc3de493cff03de55482e6a863dfbb2d6d27026561bOpen Booster Car...77873892021-04-08 3:25:39161 days 7 hrs ago0x68560936cd0d6a1d1454b8e30be2d474759ba600OUT 0x7b1664842cdbb450be8e1fa9bb18ab147d0973980 BNB0.00316775
0x156dcf079dbedd69ecf7c7064624778ff0f6d106978418ccb12e8078eac6878cGet Bonus Booste...77873752021-04-08 3:24:57161 days 7 hrs ago0x68560936cd0d6a1d1454b8e30be2d474759ba600OUT 0x7b1664842cdbb450be8e1fa9bb18ab147d0973980 BNB0.00064719
0x1d0c8679eafd214ea90cae00ee19a45f1896800453d416fb3626317e16957ca6Transfer76803752021-04-04 10:11:57165 days 1 hr ago0x68560936cd0d6a1d1454b8e30be2d474759ba600OUT0xfdd90be9daea8395b96a254f8fdbe7f04921ccc01 BNB0.00021
0x9946155cdc5f2b4dcc907caa3a719673220f9f134204448c97cb7194af2f757fWithdraw76783022021-04-04 8:28:18165 days 2 hrs ago0x68560936cd0d6a1d1454b8e30be2d474759ba600OUT 0xbcc3b013302ec279ede6e340c8227b73ced9eb550 BNB0.00299761
0xdd6fd7291680e6f6da860476a92817691584813d5af769f5fa09d92d3baeb29aRepay76782912021-04-04 8:27:45165 days 2 hrs ago0x68560936cd0d6a1d1454b8e30be2d474759ba600OUT 0xbcc3b013302ec279ede6e340c8227b73ced9eb550 BNB0.00180082
[ Download CSV Export 
Parent Txn Hash Block From To Value
Loading

Contract Name:
0 BNB

Compiler Version
0

Optimization Enabled:
0 BNB

Other Settings:
-NA-
Block Transaction Gas Used Reward
Age Block Fee Address BC Fee Address Voting Power Jailed Incoming
Block Uncle Number Difficulty Gas Used Reward
Loading